{"data":{"norad_id":67125,"intl_designator":"2025-299Z","name":"STARLINK-36219","alt_names":[],"object_type":"PAYLOAD","status":"ACTIVE","operator":null,"country":"US","launch_date":"2025-12-15","launch_site_code":"AFETR","launch_vehicle":null,"mission":null,"orbit_class":"UNKNOWN","rcs_meters":null,"size_class":null,"mass_kg":null,"dimensions":null,"purposes":["comms"],"wikipedia_slug":null,"has_3d_model":false,"image_url":null,"decayed_at":null,"tle_current":{"epoch":"2026-05-25T04:10:35.662368Z","epoch_age_seconds":53401,"freshness":"FRESH","line1":"1 67125U 25299Z   26145.17402387  .00016689  00000+0  61445-3 0  9990","line2":"2 67125  43.0015  97.0329 0000937 267.8771  92.1974 15.27588075 24818","mean_motion":15.27588075,"eccentricity":9.37e-5,"inclination_deg":43.0015,"raan_deg":97.0329,"arg_perigee_deg":267.8771,"mean_anomaly_deg":92.1974,"bstar":0.00061445,"rev_number":2481,"period_min":94.266250409162,"perigee_km":482.38202581961,"apogee_km":483.66780756279,"semimajor_km":6861.1619166912,"source":"CELESTRAK","updated_at":"2026-05-25T13:38:21.477764Z"}}}